Location: Observatory Park - Geauga Park District
(41.5832°N, 81.0716°W)
Time: 20:59:28
(UTC-04:00)

Envisat - Pass Details

Date: 03 October 2021
Orbit: 764 x 766 km, 98.2° (Epoch: 17 October)

Event Time Altitude Azimuth Distance (km) Brightness Sun altitude
Rises 05:02:28 0° 37° (NE) 3,235 7.1 -26.8°
Reaches altitude 10° 05:06:53 10° 73° (ENE) 2,301 6.5 -26.0°
Maximum altitude 05:08:10 11° 88° (E) 2,237 6.3 -25.8°
Drops below altitude 10° 05:09:27 10° 103° (ESE) 2,296 6.2 -25.6°
Sets 05:13:48 0° 139° (SE) 3,215 6.5 -24.8°
